Location: Newark
(47.3150°N, 5.1150°E)
Time: 08:17:11
(UTC+00:00)

TIGRISAT - Visible Passes

Search period start: 11 December 2019 00:00
Search period end: 21 December 2019 00:00
Orbit: 606 x 688 km, 97.7° (Epoch: 11 December)

Date Brightness Start Highest point End Pass type
(mag) Time Alt. Az. Time Alt. Az. Time Alt. Az.
13 Dec ? 05:59:28 10° E 06:02:21 16° ENE 06:05:14 10° NNE visible
14 Dec ? 06:23:53 10° ESE 06:27:45 26° ENE 06:31:39 10° N visible
16 Dec ? 05:41:32 10° ENE 05:43:02 11° NE 05:44:32 10° NE visible
17 Dec ? 06:05:11 10° ESE 06:08:23 19° ENE 06:11:36 10° NNE visible
18 Dec ? 06:29:46 10° SE 06:33:49 30° ENE 06:37:54 10° N visible
20 Dec ? 05:46:57 10° E 05:49:02 13° ENE 05:51:09 10° NNE visible
